Aérodrome :
LOGIN :

S'inscrire | Disclaimer

   EN    FR    IT 

 










Légende :    VFR   VFR Marginal   IFR   IFR Intensif   IFR Très Intensif
Visi : 
Plafond : 
>= 8 km
>= 3000ft
5 à 8 km
1000 à 3000 ft
1500m à 5 km
500 à 1000 ft
800 à 1500m
200 à 500 ft
< 800m
< 200 ft
Symboles :   Orages  Brouillard  Fortes neiges  Fortes précipitations  Vent > 20 kt
SIGMETs :   Divers  Orages  Givrage  Turbulence  Onde Orograph.  Cendres Volcan.







- Altitude de l'aérodrome : 28 ft
- Code IATA : SOZ
- Voir les cartes d'approche


LFKS - Solenzara

DERNIER METAR :
  • 130400Z AUTO 27006KT 9999 FEW038 13/10 Q1027

METARs EXPIRÉS :
  • 130330Z AUTO 28005KT CAVOK 13/10 Q1026
  • 130300Z AUTO 28006KT 240V300 9999 FEW036 13/10 Q1026
  • 130230Z AUTO 28006KT 9999 SCT038 13/10 Q1026
  • 130200Z AUTO 28006KT 250V310 9999 FEW036 13/10 Q1026
  • 130130Z AUTO 27006KT CAVOK 13/10 Q1027

TAF TAF LFKS
Valide du 12 à 15h jusqu'au 13 à 15h UTC


121400Z 1215/1315 16010KT 9999 SCT030
BECMG 1217/1218 28005KT
Pas de NOTAMs connus pour ce terrain.



MET'MAP, la Météo Aéronautique d'un coup d'oeil ! - Copyright ORBIFLY Décembre 2007 - Disclaimer

ORBIFLY MET'MAP TEAM :

Programmation & Développement : Alexandra Zaïnal
Conception & Développement : Baudouin d'Aumeries
Co-Programmation & Développement : Marc-Olivier Méhu
Soutien technique & logistique : Manuel Goepfert

Contact : metmap@orbifly.com




SOURCES & CREDITS :

   NOAA